Date String (YYYY-MM-DD hh:mm:ss) UTC,Instrument flags,Ambient pressure (hPa),Sample flow (lpm),Bypass flow (lpm),Sample temperature (°C),Ambient temperature (°C),ASC tube jacket temperature (°C),LED temperature (°C),Box temperature (°C),Sample RH (%),Span deviation,Mass concentration (μg/m³),Mass concentration (μg/m³),Mass concentration (μg/m³)
DateTimeUTC,F1_M11,P_M11,Q1_M11,Q2_M11,T1_M11,T2_M11,T3_M11,T4_M11,T5_M11,U1_M11,ZSPAN_M11,X0_M11,X2_M11,X1_M11
2021-10-07 06:00:00,,0826.3,5.01,0.00,29.9,28.9,00.0,38.9,31.7,16.1,0000.0,0008.70,0001.89,0001.30
2021-10-07 06:01:00,,0826.4,5.00,0.00,29.9,29.0,00.0,38.9,31.7,16.1,0000.0,0008.62,0001.97,0001.33
2021-10-07 06:02:00,,0826.3,5.01,0.00,29.9,29.0,00.0,38.9,31.7,16.0,0000.0,0008.63,0001.99,0001.36
2021-10-07 06:03:00,,0826.3,5.00,0.00,30.0,29.1,00.0,38.9,31.8,16.0,0000.0,0008.68,0002.00,0001.38
2021-10-07 06:04:00,,0826.4,5.00,0.00,30.0,29.1,00.0,39.0,31.8,15.9,0000.0,0008.89,0002.00,0001.40
2021-10-07 06:05:00,,0826.4,4.99,0.00,30.0,29.2,00.0,39.0,31.8,15.9,0000.0,0008.89,0002.02,0001.43
2021-10-07 06:06:00,,0826.4,5.00,0.00,30.0,29.2,00.0,39.0,31.9,15.9,0000.0,0008.51,0002.04,0001.45
2021-10-07 06:07:00,,0826.4,5.00,0.00,30.1,29.3,00.0,39.0,31.9,15.9,0000.0,0008.04,0002.05,0001.47
2021-10-07 06:08:00,,0826.5,5.00,0.00,30.1,29.3,00.0,39.0,31.9,16.0,0000.0,0006.80,0002.05,0001.49
2021-10-07 06:09:00,,0826.4,4.99,0.00,30.1,28.6,00.0,39.1,31.7,16.1,0000.0,0006.05,0002.10,0001.52
2021-10-07 06:10:00,,0826.4,5.01,0.00,29.9,26.7,00.0,39.0,31.2,16.2,0000.0,0005.93,0002.08,0001.55
2021-10-07 06:11:00,,0826.4,4.99,0.00,29.8,26.4,00.0,39.0,31.1,16.3,0000.0,0004.84,0002.08,0001.57
2021-10-07 06:12:00,,0826.3,5.01,0.00,29.7,26.7,00.0,39.0,31.2,16.4,0000.0,0004.70,0002.03,0001.58
2021-10-07 06:13:00,,0826.3,5.00,0.00,29.7,27.1,00.0,38.9,31.2,16.5,0000.0,0004.68,0002.05,0001.62
2021-10-07 06:14:00,,0826.3,5.00,0.00,29.7,27.5,00.0,38.9,31.3,16.6,0000.0,0004.67,0002.11,0001.66
2021-10-07 06:15:00,,0826.4,4.99,0.00,29.7,27.8,00.0,38.9,31.3,16.6,0000.0,0005.55,0002.24,0001.72
2021-10-07 06:16:00,,0826.4,5.00,0.00,29.7,28.0,00.0,38.8,31.3,16.7,0000.0,0006.73,0002.37,0001.78
2021-10-07 06:17:00,,0826.4,5.00,0.00,29.7,28.2,00.0,38.8,31.4,16.7,0000.0,0007.18,0002.50,0001.85
2021-10-07 06:18:00,,0826.4,5.00,0.00,29.7,28.4,00.0,38.8,31.5,16.6,0000.0,0007.55,0002.64,0001.93
2021-10-07 06:19:00,,0826.4,5.00,0.00,29.7,28.5,00.0,38.8,31.5,16.6,0000.0,0007.56,0002.76,0002.00
2021-10-07 06:20:00,,0826.5,4.99,0.00,29.8,28.6,00.0,38.9,31.5,16.6,0000.0,0007.59,0002.89,0002.06
2021-10-07 06:21:00,,0826.5,4.99,0.00,29.8,28.7,00.0,38.9,31.6,16.6,0000.0,0007.88,0003.05,0002.11
2021-10-07 06:22:00,,0826.5,5.00,0.00,29.8,28.8,00.0,38.9,31.6,16.5,0000.0,0008.09,0003.16,0002.18
2021-10-07 06:23:00,,0826.5,5.02,0.00,29.9,28.9,00.0,38.9,31.7,16.5,0000.0,0008.64,0003.27,0002.24
2021-10-07 06:24:00,,0826.5,4.98,0.00,29.9,28.9,00.0,38.9,31.7,16.5,0000.0,0009.20,0003.35,0002.29
2021-10-07 06:25:00,,0826.5,5.01,0.00,29.9,29.0,00.0,38.9,31.7,16.5,0000.0,0009.52,0003.38,0002.32
2021-10-07 06:26:00,,0826.5,4.99,0.00,29.9,29.0,00.0,38.9,31.8,16.4,0000.0,0009.14,0003.33,0002.31
2021-10-07 06:27:00,,0826.5,5.00,0.00,30.0,29.1,00.0,38.9,31.7,16.4,0000.0,0008.75,0003.30,0002.29
2021-10-07 06:28:00,,0826.5,5.00,0.00,30.0,29.1,00.0,39.0,31.8,16.4,0000.0,0008.62,0003.31,0002.27
2021-10-07 06:29:00,,0826.4,5.01,0.00,30.0,29.1,00.0,39.0,31.9,16.4,0000.0,0008.56,0003.28,0002.25
2021-10-07 06:30:00,,0826.5,4.99,0.00,30.0,29.2,00.0,39.0,31.9,16.4,0000.0,0009.17,0003.29,0002.24
2021-10-07 06:31:00,,0826.5,5.00,0.00,30.1,29.2,00.0,39.0,31.9,16.4,0000.0,0009.41,0003.28,0002.22
2021-10-07 06:32:00,,0826.5,5.01,0.00,30.1,29.2,00.0,39.1,31.9,16.3,0000.0,0009.64,0003.25,0002.20
2021-10-07 06:33:00,,0826.5,4.99,0.00,30.1,29.2,00.0,39.1,31.9,16.3,0000.0,0009.66,0003.25,0002.19
2021-10-07 06:34:00,,0826.5,4.99,0.00,30.1,28.7,00.0,39.1,31.8,16.3,0000.0,0009.75,0003.23,0002.18
2021-10-07 06:35:00,,0826.5,5.01,0.00,30.0,26.8,00.0,39.1,31.3,16.4,0000.0,0009.71,0003.23,0002.18
2021-10-07 06:36:00,,0826.5,4.99,0.00,29.9,26.3,00.0,39.0,31.2,16.5,0000.0,0009.74,0003.28,0002.18
2021-10-07 06:37:00,,0826.5,5.00,0.00,29.8,26.6,00.0,39.0,31.2,16.6,0000.0,0010.16,0003.36,0002.21
2021-10-07 06:38:00,,0826.5,5.00,0.00,29.7,27.0,00.0,38.9,31.2,16.6,0000.0,0010.17,0003.44,0002.26
2021-10-07 06:39:00,,0826.5,5.01,0.00,29.7,27.4,00.0,38.9,31.3,16.7,0000.0,0010.20,0003.49,0002.28
2021-10-07 06:40:00,,0826.5,5.00,0.00,29.7,27.7,00.0,38.9,31.3,16.7,0000.0,0010.19,0003.56,0002.30
2021-10-07 06:41:00,,0826.5,5.00,0.00,29.7,28.0,00.0,38.8,31.4,16.7,0000.0,0009.74,0003.56,0002.31
2021-10-07 06:42:00,,0826.5,4.99,0.00,29.7,28.2,00.0,38.8,31.4,16.7,0000.0,0009.57,0003.58,0002.33
2021-10-07 06:43:00,,0826.5,5.00,0.00,29.7,28.3,00.0,38.8,31.4,16.7,0000.0,0009.57,0003.58,0002.34
2021-10-07 06:44:00,,0826.6,5.00,0.00,29.7,28.4,00.0,38.8,31.5,16.7,0000.0,0010.38,0003.58,0002.35
2021-10-07 06:45:00,,0826.5,5.00,0.00,29.8,28.6,00.0,38.8,31.5,16.8,0000.0,0010.58,0003.58,0002.35
2021-10-07 06:46:00,,0826.5,4.99,0.00,29.8,28.7,00.0,38.8,31.5,16.7,0000.0,0010.25,0003.56,0002.35
2021-10-07 06:47:00,,0826.5,5.02,0.00,29.8,28.7,00.0,38.9,31.5,16.7,0000.0,0010.76,0003.53,0002.33
2021-10-07 06:48:00,,0826.5,5.00,0.00,29.8,28.8,00.0,38.9,31.6,16.7,0000.0,0010.59,0003.49,0002.31
2021-10-07 06:49:00,,0826.5,4.99,0.00,29.9,28.9,00.0,38.9,31.7,16.7,0000.0,0010.48,0003.41,0002.28
2021-10-07 06:50:00,,0826.6,5.00,0.00,29.9,28.9,00.0,38.9,31.7,16.6,0000.0,0010.41,0003.36,0002.27
2021-10-07 06:51:00,,0826.6,5.01,0.00,29.9,29.0,00.0,38.9,31.7,16.6,0000.0,0010.37,0003.32,0002.25
2021-10-07 06:52:00,,0826.6,5.00,0.00,29.9,29.0,00.0,38.9,31.8,16.6,0000.0,0010.59,0003.30,0002.24
2021-10-07 06:53:00,,0826.7,5.01,0.00,30.0,29.0,00.0,38.9,31.7,16.6,0000.0,0010.58,0003.25,0002.22
2021-10-07 06:54:00,,0826.7,4.99,0.00,30.0,29.1,00.0,39.0,31.8,16.6,0000.0,0010.25,0003.24,0002.22
2021-10-07 06:55:00,,0826.6,5.01,0.00,30.0,29.1,00.0,39.0,31.8,16.6,0000.0,0009.91,0003.26,0002.21
2021-10-07 06:56:00,,0826.7,5.01,0.00,30.0,29.2,00.0,39.0,31.8,16.6,0000.0,0009.54,0003.26,0002.21
2021-10-07 06:57:00,,0826.7,4.99,0.00,30.0,29.2,00.0,39.0,31.9,16.6,0000.0,0009.59,0003.26,0002.20
2021-10-07 06:58:00,,0826.6,5.00,0.00,30.1,29.2,00.0,39.0,31.9,16.6,0000.0,0009.58,0003.25,0002.21
2021-10-07 06:59:00,,0826.7,4.99,0.00,30.1,29.3,00.0,39.1,31.9,16.6,0000.0,0009.84,0003.27,0002.23
